• In Netherlands
  • List of Countries
  • For 7 days
  • Water Temperature
  • Satellite Maps
  • Weather Map
  • Weather Widgets
  • user-avatar
    Login

    Hourly Weather Tulsa

    Today, 23 November, Thursday

    Time Temperature Precipitation Wind Pressure Humidity
    00:00 +3°C° 0 mm 2 mps 748 mmHg 43%
    01:00 +3°C° 0 mm 2 mps 748 mmHg 44%
    02:00 +3°C° 0 mm 2 mps 747 mmHg 44%
    03:00 +2°C° 0 mm 3 mps 747 mmHg 45%
    04:00 +2°C° 0 mm 3 mps 747 mmHg 45%
    05:00 +2°C° 0 mm 3 mps 747 mmHg 46%
    06:00 +2°C° 0 mm 3 mps 746 mmHg 46%
    07:00 +3°C° 0 mm 3 mps 746 mmHg 45%
    08:00 +5°C° 0 mm 3 mps 746 mmHg 43%
    09:00 +7°C° 0 mm 3 mps 747 mmHg 42%
    10:00 +9°C° 0 mm 3 mps 746 mmHg 39%
    11:00 +11°C° 0 mm 3 mps 746 mmHg 37%
    12:00 +14°C° 0 mm 3 mps 746 mmHg 34%
    13:00 +16°C° 0 mm 2 mps 745 mmHg 34%
    14:00 +17°C° 0 mm 2 mps 744 mmHg 34%
    15:00 +18°C° 0 mm 2 mps 744 mmHg 34%
    16:00 +16°C° 0 mm 1 mps 743 mmHg 39%
    17:00 +15°C° 0 mm 1 mps 743 mmHg 43%
    18:00 +13°C° 0 mm 1 mps 743 mmHg 48%
    19:00 +13°C° 0 mm 1 mps 743 mmHg 49%
    20:00 +12°C° 0 mm 2 mps 743 mmHg 50%
    21:00 +12°C° 0 mm 2 mps 743 mmHg 52%
    22:00 +10°C° 0 mm 2 mps 743 mmHg 53%
    23:00 +10°C° 0 mm 2 mps 743 mmHg 55%

    Tomorrow, 24 November, Friday

    Time Temperature Precipitation Wind Pressure Humidity
    00:00 +10°C° 0 mm 3 mps 743 mmHg 57%
    01:00 +9°C° 0 mm 3 mps 743 mmHg 58%
    02:00 +9°C° 0 mm 3 mps 742 mmHg 60%
    03:00 +9°C° 0 mm 3 mps 742 mmHg 62%
    04:00 +9°C° 0 mm 3 mps 741 mmHg 62%
    05:00 +9°C° 0 mm 3 mps 741 mmHg 63%
    06:00 +8°C° 0 mm 3 mps 741 mmHg 63%
    07:00 +10°C° 0 mm 4 mps 741 mmHg 60%
    08:00 +10°C° 0 mm 5 mps 741 mmHg 56%
    09:00 +12°C° 0 mm 5 mps 741 mmHg 53%
    10:00 +14°C° 0 mm 6 mps 740 mmHg 49%
    11:00 +16°C° 0 mm 6 mps 740 mmHg 44%
    12:00 +19°C° 0 mm 6 mps 739 mmHg 40%
    13:00 +20°C° 0 mm 6 mps 738 mmHg 39%
    14:00 +21°C° 0 mm 6 mps 738 mmHg 38%
    15:00 +22°C° 0 mm 6 mps 737 mmHg 37%
    16:00 +20°C° 0 mm 5 mps 737 mmHg 42%
    17:00 +19°C° 0 mm 4 mps 737 mmHg 47%
    18:00 +17°C° 0 mm 3 mps 737 mmHg 52%
    19:00 +16°C° 0 mm 3 mps 738 mmHg 53%
    20:00 +14°C° 0 mm 3 mps 738 mmHg 55%
    21:00 +14°C° 0 mm 4 mps 739 mmHg 57%
    22:00 +13°C° 0 mm 3 mps 739 mmHg 58%
    23:00 +13°C° 0 mm 3 mps 739 mmHg 60%

    Day after tomorrow, 25 November, Saturday

    Time Temperature Precipitation Wind Pressure Humidity
    00:00 +13°C° 0 mm 2 mps 740 mmHg 62%
    01:00 +13°C° 0 mm 2 mps 740 mmHg 63%
    02:00 +12°C° 0 mm 3 mps 741 mmHg 65%
    03:00 +12°C° 0 mm 3 mps 741 mmHg 66%
    04:00 +11°C° 0 mm 3 mps 742 mmHg 66%
    05:00 +11°C° 0 mm 3 mps 742 mmHg 65%
    06:00 +11°C° 0 mm 4 mps 743 mmHg 65%
    07:00 +11°C° 0 mm 4 mps 744 mmHg 61%
    08:00 +12°C° 0 mm 4 mps 745 mmHg 57%
    09:00 +13°C° 0 mm 5 mps 746 mmHg 53%
    10:00 +14°C° 0 mm 5 mps 746 mmHg 48%
    11:00 +17°C° 0 mm 4 mps 746 mmHg 42%
    12:00 +18°C° 0 mm 4 mps 746 mmHg 37%
    13:00 +19°C° 0 mm 4 mps 746 mmHg 35%
    14:00 +19°C° 0 mm 4 mps 746 mmHg 33%
    15:00 +19°C° 0 mm 4 mps 746 mmHg 31%
    16:00 +17°C° 0 mm 4 mps 746 mmHg 35%
    17:00 +16°C° 0 mm 3 mps 747 mmHg 39%
    18:00 +14°C° 0 mm 2 mps 747 mmHg 43%
    19:00 +13°C° 0 mm 2 mps 747 mmHg 44%
    20:00 +13°C° 0 mm 1 mps 748 mmHg 45%
    21:00 +12°C° 0 mm 1 mps 748 mmHg 47%
    22:00 +11°C° 0 mm 1 mps 748 mmHg 48%
    23:00 +10°C° 0 mm 0 mps 749 mmHg 49%

    26 November, Sunday

    Time Temperature Precipitation Wind Pressure Humidity
    00:00 +9°C° 0 mm 0 mps 749 mmHg 50%
    01:00 +9°C° 0 mm 0 mps 749 mmHg 50%
    02:00 +9°C° 0 mm 0 mps 749 mmHg 51%
    03:00 +10°C° 0 mm 1 mps 749 mmHg 52%
    04:00 +9°C° 0 mm 1 mps 749 mmHg 53%
    05:00 +9°C° 0 mm 1 mps 749 mmHg 54%
    06:00 +9°C° 0 mm 1 mps 749 mmHg 54%
    07:00 +9°C° 0 mm 2 mps 749 mmHg 52%
    08:00 +10°C° 0 mm 2 mps 749 mmHg 51%
    09:00 +12°C° 0 mm 2 mps 749 mmHg 49%
    10:00 +13°C° 0 mm 3 mps 749 mmHg 44%
    11:00 +15°C° 0 mm 4 mps 748 mmHg 39%
    12:00 +18°C° 0 mm 4 mps 748 mmHg 33%
    13:00 +19°C° 0 mm 5 mps 747 mmHg 33%
    14:00 +19°C° 0 mm 5 mps 746 mmHg 32%
    15:00 +20°C° 0 mm 5 mps 745 mmHg 31%
    16:00 +17°C° 0 mm 5 mps 745 mmHg 36%
    17:00 +17°C° 0 mm 4 mps 745 mmHg 41%
    18:00 +14°C° 0 mm 4 mps 745 mmHg 45%
    19:00 +14°C° 0 mm 4 mps 745 mmHg 49%
    20:00 +13°C° 0 mm 5 mps 745 mmHg 53%
    21:00 +13°C° 0 mm 5 mps 744 mmHg 56%
    22:00 +13°C° 0 mm 5 mps 744 mmHg 58%
    23:00 +11°C° 0 mm 6 mps 744 mmHg 60%

    27 November, Monday

    Time Temperature Precipitation Wind Pressure Humidity
    00:00 +11°C° 0 mm 6 mps 744 mmHg 61%
    01:00 +11°C° 0 mm 6 mps 743 mmHg 62%
    02:00 +11°C° 0 mm 6 mps 743 mmHg 64%
    03:00 +11°C° 0 mm 7 mps 743 mmHg 65%
    04:00 +11°C° 0 mm 7 mps 742 mmHg 64%
    05:00 +11°C° 0 mm 7 mps 742 mmHg 64%
    06:00 +11°C° 0 mm 8 mps 741 mmHg 63%
    07:00 +12°C° 0 mm 8 mps 741 mmHg 61%
    08:00 +12°C° 0 mm 9 mps 741 mmHg 59%
    09:00 +13°C° 0 mm 10 mps 741 mmHg 57%
    10:00 +16°C° 0 mm 10 mps 740 mmHg 54%
    11:00 +18°C° 0 mm 11 mps 740 mmHg 51%
    12:00 +21°C° 0 mm 11 mps 739 mmHg 47%
    13:00 +21°C° 0 mm 11 mps 738 mmHg 47%
    14:00 +22°C° 0 mm 11 mps 737 mmHg 46%
    15:00 +22°C° 0 mm 11 mps 737 mmHg 46%
    16:00 +21°C° 0 mm 10 mps 737 mmHg 50%
    17:00 +19°C° 0 mm 9 mps 737 mmHg 53%
    18:00 +18°C° 0 mm 9 mps 737 mmHg 57%
    19:00 +18°C° 0 mm 9 mps 737 mmHg 59%
    20:00 +18°C° 0 mm 8 mps 737 mmHg 62%
    21:00 +17°C° 0 mm 8 mps 737 mmHg 65%
    22:00 +17°C° 0 mm 8 mps 737 mmHg 67%
    23:00 +17°C° 0 mm 8 mps 737 mmHg 69%

    28 November, Tuesday

    Time Temperature Precipitation Wind Pressure Humidity
    00:00 +17°C° 0 mm 7 mps 737 mmHg 71%
    01:00 +16°C° 0 mm 6 mps 738 mmHg 71%
    02:00 +16°C° 0 mm 5 mps 739 mmHg 71%
    03:00 +15°C° 0 mm 4 mps 740 mmHg 72%
    04:00 +14°C° 0 mm 6 mps 741 mmHg 62%
    05:00 +12°C° 0 mm 7 mps 742 mmHg 52%
    06:00 +11°C° 0 mm 9 mps 743 mmHg 42%
    07:00 +11°C° 0 mm 9 mps 744 mmHg 41%
    08:00 +11°C° 0 mm 9 mps 745 mmHg 40%
    09:00 +11°C° 0 mm 9 mps 747 mmHg 40%
    10:00 +11°C° 0 mm 9 mps 747 mmHg 36%
    11:00 +12°C° 0 mm 9 mps 748 mmHg 33%
    12:00 +13°C° 0 mm 9 mps 749 mmHg 30%
    13:00 +13°C° 0 mm 9 mps 749 mmHg 28%
    14:00 +12°C° 0 mm 8 mps 749 mmHg 26%
    15:00 +12°C° 0 mm 8 mps 750 mmHg 24%
    16:00 +12°C° 0 mm 7 mps 750 mmHg 25%
    17:00 +12°C° 0 mm 5 mps 751 mmHg 26%
    18:00 +11°C° 0 mm 4 mps 752 mmHg 26%
    19:00 +10°C° 0 mm 5 mps 753 mmHg 25%
    20:00 +9°C° 0 mm 5 mps 754 mmHg 24%
    21:00 +9°C° 0 mm 6 mps 755 mmHg 23%
    22:00 +8°C° 0 mm 6 mps 755 mmHg 25%
    23:00 +7°C° 0 mm 5 mps 755 mmHg 27%
    Show more